Regional Weather Roundup
Issued by NWS Albany, NY

Home | Current Version | Previous Version | Text Only | Print | Product List | Glossary On
Versions: 1 2 3 4 5 6 7 8 9 10 11 12 13 14 15 16 17 18 19 20 21 22 23 24 25 26 27 28
000
ASUS41 KALY 250510
RWRALY

NEW YORK STATE HOURLY WEATHER ROUNDUP
NATIONAL WEATHER SERVICE ALBANY NY
100 AM EDT THU AUG 25 2016

NOTE: "FAIR" INDICATES FEW OR NO CLOUDS BELOW 12,000 FEET WITH NO
SIGNIFICANT WEATHER AND/OR NO OBSTRUCTIONS TO VISIBILITY.

NYZ032-033-038>043-046>054-057>066-NYZ062>081-082-084-250600-
EAST


CITY           SKY/WX    TMP DP  RH WIND       PRES   REMARKS
ALBANY         NOT AVBL
GLENS FALLS    NOT AVBL
POUGHKEEPSIE   CLEAR     72  63  73 CALM      30.13F
NEWBURGH       CLEAR     68  64  88 CALM      30.16F
MONTGOMERY     CLEAR     63  61  93 W3        30.14F
WHITE PLAINS   CLEAR     68  65  90 CALM      30.16F
ISLIP          CLEAR     72  65  78 SW9       30.17F
NEW YORK CITY  PTCLDY    76  61  59 SW9       30.15F
CENTRAL PARK     N/A     75  61  60 MISG        N/A
$$

NYZ005>009-017-018-044>046-055-056-250600-
CENTRAL


CITY           SKY/WX    TMP DP  RH WIND       PRES   REMARKS
FULTON         CLEAR     73  63  70 S7        30.02F
SYRACUSE       PTCLDY    76  61  59 S14       30.03F
ROME           MOCLDY    71  62  73 E3        30.07F
ELMIRA         CLEAR     69  62  78 W6        30.08F
BINGHAMTON     CLEAR     69  61  75 S12       30.13F
MONTICELLO     CLOUDY    61  57  88 CALM      30.19S
$$

NYZ026>034-041>043-087-250600-
NORTH


CITY           SKY/WX    TMP DP  RH WIND       PRES   REMARKS
WATERTOWN      PTCLDY    77  61  57 S12G18    29.99F
FORT DRUM      NOT AVBL
MASSENA        PTCLDY    73  61  65 SW6       29.99S
PLATTSBURGH    MOCLDY    65  63  93 SW3       30.02F
$$

NYZ001>004-010>016-019>021-085-250600-
WEST


CITY           SKY/WX    TMP DP  RH WIND       PRES   REMARKS
NIAGARA FALLS  CLOUDY    78  63  59 S12       29.96F
BUFFALO        CLOUDY    78  61  55 S12       29.98F
DUNKIRK        MOCLDY    77  63  61 S15G24    29.98F
JAMESTOWN      CLEAR     70  59  68 S8        30.07S
WELLSVILLE     CLEAR     70  60  70 S9        30.13F
ROCHESTER      CLOUDY    73  61  65 SW6       30.00F
PENN YAN       CLEAR     73  62  68 S9        30.06F
$$

             KEY
       WCI = WIND CHILL INDEX
       VSB = VISIBILITY
       HX  = HEAT INDEX
$$




USA.gov is the U.S. government's official web portal to all federal, state and local government web resources and services.